Location: Unspecified
(48.2082°N, 0.0000°E)
Time: 20:38:28
(UTC+00:00)

Altair - Pass Details

Date: 19 June 2019
Orbit: 1501 x 1683 km, 47.2° (Epoch: 17 July)

Event Time Altitude Azimuth Distance (km) Brightness Sun altitude
Rises 04:23:37 0° 289° (WNW) 4,906 9.8 2.5°
Reaches altitude 10° 04:27:49 10° 275° (W) 3,932 9.2 3.1°
Maximum altitude 04:34:31 21° 232° (SW) 3,179 8.6 4.0°
Drops below altitude 10° 04:41:16 10° 190° (S) 3,933 9.3 5.0°
Sets 04:45:31 0° 175° (S) 4,907 9.9 5.6°
